Simultaneous Nadir Overpasses (SNOs) Predictions

Prediction of SNOs between FY3D and NOAA-19 Satellite Orbit:

Table of predicted SNOs for the next 14.0 days since TLE Epoch: 7/9/2022
Index Date (FY3D) Time (FY3D) Lat,Lon (FY3D) SZA (FY3D ) Date (NOAA-19) Time (NOAA-19) Lat,Lon (NOAA-19) SZA (NOAA-19 ) Distance(km) Time Diff (sec)
1 07/17/2022 07:56:45 77.25, 45.48 56.62 07/17/2022 07:55:34 77.24, 44.07 56.74 34.64 71
2 07/17/2022 08:47:33 -77.40,-147.88 123.19 07/17/2022 08:46:30 -77.41,-147.85 123.16 1.36 63
3 07/17/2022 09:38:20 77.40, 19.40 56.83 07/17/2022 09:37:30 77.40, 19.33 56.84 2.05 50
4 07/17/2022 10:29:05 -77.43,-173.39 123.14 07/17/2022 10:28:30 -77.40,-173.38 123.16 2.56 35
5 07/17/2022 11:19:52 77.43, -6.11 56.87 07/17/2022 11:19:29 77.43, -6.00 56.87 2.63 23
6 07/17/2022 12:10:36 -77.41, 161.30 123.15 07/17/2022 12:10:29 -77.44, 161.29 123.12 2.82 7
7 07/17/2022 13:01:23 77.42, -31.43 56.87 07/17/2022 13:01:29 77.42, -31.53 56.88 2.63 6
8 07/17/2022 13:52:08 -77.44, 135.79 123.10 07/17/2022 13:52:29 -77.43, 135.77 123.11 1.05 21
9 07/17/2022 14:42:55 77.45, -56.94 56.92 07/17/2022 14:43:28 77.46, -56.86 56.91 2.02 33
10 07/17/2022 15:33:40 -77.47, 110.28 123.05 07/17/2022 15:34:28 -77.47, 110.44 123.08 3.90 48
11 07/17/2022 16:24:27 77.47, -82.45 56.96 07/17/2022 16:25:28 77.45, -82.39 56.92 3.12 61
12 07/17/2022 17:15:13 -77.54, 84.57 122.95 07/17/2022 17:16:27 -77.50, 85.11 123.05 13.64 74



Historial Predications of SNOs between FY3D and NOAA-19
